MOLNIYA 3-41

Last updated on Aug. 6, 2020, 5:30 a.m. UTC

1 21706U 91065A   20218.23624268  .00000944  00000-0  00000+0 0  9999
2 21706  64.1641 236.8082 6746688 263.9958  21.6681  2.04351596213012
UTC
Height (km)
Latitude
Longitude
Inclination
Orbital Period
UTC large
Height (km)
Speed (km/s)
/
Latitude / Longitude
Inclination (degrees)
Orbital Period (minutes)
Azimuth
Elevation
Range (km)
Doppler Factor
iOS Compass Heading
iOS Angle

Next 30 passes for location: Hong Kong

Rise time Rise Azimuth (degrees) Set time Set Azimuth (degrees) Duration Max altitude (degrees)

No matching passes for this satellites